Regional Weather Roundup
Issued by NWS Newport/Morehead, NC

Current Version | Previous Version | Text Only | Print | Product List | Glossary On
Versions: 1 2 3 4 5 6 7 8 9 10 11 12 13 14 15 16 17 18 19 20 21 22 23 24 25 26 27 28 29 30 31 32 33 34 35 36 37 38 39 40 41 42 43 44 45 46 47 48 49 50
000
ASUS42 KMHX 251213
RWRMHX
WEATHER ROUNDUP FOR EASTERN NORTH CAROLINA
NATIONAL WEATHER SERVICE NEWPORT/MOREHEAD CITY NC
800 AM EDT WED APR 25 2018

NOTE: "FAIR" INDICATES FEW OR NO CLOUDS BELOW 12,000 FEET
WITH NO SIGNIFICANT WEATHER AND/OR OBSTRUCTIONS TO VISIBILITY

NCZ015>017-031-032-045>047-102-103-251300-
NORTH COAST

CITY           SKY/WX    TMP DP  RH WIND       PRES   REMARKS
EDENTON        NOT AVBL
ELIZABETH CITY PTSUNNY   63  62  97 S6        29.76S
KITTY HAWK     FAIR      62  61  98 MISG      29.76F
MANTEO         FAIR      62  60  92 S7        29.77F

$$

NCZ045>047-081-094-103-104-251300-
CENTRAL COAST

CITY           SKY/WX    TMP DP  RH WIND       PRES   REMARKS
FRISCO         FAIR      68  64  87 SW9       29.79S

$$

NCZ095-097-098-100-101-251300-
SOUTHERN COAST

CITY           SKY/WX    TMP DP  RH WIND       PRES   REMARKS
BEAUFORT       FAIR      64  61  90 SW10      29.78S
CEDAR ISLAND   NOT AVBL
JACKSONVILLE   FAIR      62  60  93 SW7       29.77R
PINEY ISLAND   NOT AVBL
WILMINGTON     PTSUNNY   62  57  83 SW12      29.79R


$$

NCZ011>013-027>030-043-044-078>080-089-090>093-098-251300-
COASTAL PLAIN

CITY           SKY/WX    TMP DP  RH WIND       PRES   REMARKS
AHOSKIE        CLOUDY    60  60 100 CALM      29.75S FOG
CLINTON        FAIR      60  60 100 SW3       29.77S
ELIZABETHTOWN  FAIR      60  58  92 MISG      29.78R
GOLDSBORO      CLOUDY    61  59  94 SW3       29.74R
GREENVILLE     CLOUDY    61  61 100 S5        29.79R
HAVELOCK       NOT AVBL
KENANSVILLE    CLOUDY    59  59 100 SW3       29.77R
KINSTON        CLOUDY    61  61 100 S5        29.77S
NEW BERN       FAIR      61  60  97 S8        29.78R
RICHLANDS      FAIR      61  59  93 SW8       29.78R
ROCKY MOUNT    CLOUDY    61  60  97 S3        29.75S FOG
WASHINGTON     CLOUDY    61  60  96 CALM      29.76S FOG
WHITEVILLE     PTSUNNY   61  57  86 SW6       29.79R

$$

AMZ130-135-150-152-154-156-158-170-250-252-270-ANZ085-086-088-633-658-670-251300-
MARINE OBSERVATIONS

STATION/POSITION TIME  TEMP    WIND        PRES    WAVE   SWELL
                       AIR SEA DIR/SP/G            HT/PER HT/PER
                 (UTC) (F)     (DEG/KT/KT) (MB)    (FT/S) (FT/S)
CHESAPEAKE LIGHT NOT AVBL
64 E VA BEACH    1150   52 49  180/  8/ 10 1008.9   13/11  13/11
DUCK             1136   54 50  130/ 10/ 11 1007.6
2 E DUCK         1130      51                N/A     6/10   3/11
OREGON INLET     1136   63 54  160/  8/ 11 1008.0
13E OREGON INLT  1148      53                N/A    10/11  10/11
HATTERAS CG      1136   66 63  220/  9/ 11 1008.2
DIAMOND BUOY     1150   70 70  220/ 12/ 17 1009.0   11/10  10/10
CAPE LOOKOUT     1100          210/  9/ 10 1008.8
BEAUFORT LAB     1136   63 62  200/  8/ 10 1008.5
30 SE NEW RVR IN 1108   66 67  220/ 12/ 16 1006.1
30 SE NEW RVR IN 1130      67                N/A     7/11   3/11
27 SE WRIGHTSVLE 1108   66 65  220/ 12/ 19 1008.9
5 SE WRIGHTSVLE  1108   63 62  220/  8/ 14 1007.4
225 S CAPE HAT   1150   70 73  170/  8/ 12 1011.4    8/ 8   8/ 8
41 SE CHARLESTON 1150      69  270/ 17/ 21 1010.3    7/ 9   7/ 9

$$




USA.gov is the U.S. government's official web portal to all federal, state and local government web resources and services.